Retour au catalogue

STARLINK-4642

ActifCommunicationsVLEO
NORAD 53720·PAYLOAD·🇺🇸 United States

Lancé Sep 5, 2022 depuis Cape Canaveral Space Force Station

Loading…

Prochains Passages (prochaines 24 heures)

TLE

FraisSource: CelesTrak SupGP

Époque: Sep 14, 2026, 22:05 UTC

1 53720C 22107W   26257.92062500  .00001084  00000+0  32039-4 0  2575
2 53720  53.1574 109.6798 0001372  82.4544 331.7897 15.34386483    18

Suivez STARLINK-4642 en temps réel avec AllMySat

Download on the App Store